Regional Weather Roundup
Issued by NWS

Home | Current Version | Previous Version | Text Only | Print | Product List | Glossary Off
Versions: 1 2 3 4 5 6 7 8 9 10 11 12 13 14 15 16 17 18 19 20 21 22 23 24 25 26 27 28 29 30 31 32 33 34 35 36 37 38 39 40 41 42 43 44 45 46 47 48 49 50

000
ASUS43 KDTX 280510
RWRMI
MICHIGAN HOURLY REGIONAL WEATHER ROUNDUP
NATIONAL WEATHER SERVICE DETROIT/PONTIAC MI
1200 AM EST SAT FEB 28 2015

NOTE: "FAIR" INDICATES FEW OR NO CLOUDS BELOW 12,000 FEET WITH NO
SIGNIFICANT WEATHER AND/OR OBSTRUCTION TO VISIBILITY.

MIZ047>049-052>055-059>063-066>070-074>076-081>083-280600-
SOUTHEAST LOWER MICHIGAN

CITY           SKY/WX    TMP DP  RH WIND       PRES   REMARKS
ADRIAN         CLEAR      5  -4  66 W5        30.66F WCI  -4
ALMA           CLEAR      7   0  72 SW6       30.61S WCI  -3
ANN ARBOR      CLEAR     -8 -13  78 CALM      30.65R
BAD AXE        CLEAR      6   0  73 SW5       30.60S WCI  -2
CARO           CLEAR      1  -4  80 CALM      30.61S
DETROIT CITY   CLEAR     13  -2  51 SW6       30.66R WCI   4
DETROIT        CLEAR      6  -4  63 S7        30.67S WCI  -6
FLINT          CLEAR      9  -2  61 SW7       30.63R WCI  -2
GROSSE ILE     CLEAR      9  -2  61 SW7       30.66F WCI  -3
HILLSDALE      CLEAR      6  -2  68 W3        30.61S
HOWELL         CLEAR      7  -2  69 SW5       30.62R WCI  -2

CITY           SKY/WX    TMP DP  RH WIND       PRES   REMARKS
JACKSON        FAIR       4  -2  76 SW5       30.62F WCI  -5
LAMBERTVILLE   CLEAR      3  -6  66 CALM      30.68S
LANSING        CLEAR      7  -3  64 SW7       30.63S WCI  -5
LAPEER         FAIR       4  -5  67 SW3       30.62R
MASON          CLEAR      2  -5  72 CALM      30.62S
MONROE         CLEAR      7  -2  66 SW3       30.66S
MT. CLEMENS    CLEAR      9  -2  61 SW7       30.64R WCI  -2
PONTIAC        PTCLDY     6  -3  66 SW3       30.61S
PORT HOPE        N/A     10  -1  61 SW6       30.58R WCI   0
PORT HURON     CLEAR     -4  -8  84 SW3       30.65S
TRI CITIES     CLEAR      8  -1  66 SW8       30.62S WCI  -4
TROY           CLEAR     11  -2  56 SW5       30.67R WCI   3
SAGINAW HB     CLEAR      9   1  72 S7        30.62S WCI  -3
$$
MIZ043>046-050>051-056>058-064>065-071>073-077>080-280600-
SOUTHWEST LOWER MICHIGAN

CITY           SKY/WX    TMP DP  RH WIND       PRES   REMARKS
BATTLE CREEK   FAIR       6  -5  60 SW8       30.62F WCI  -7
BENTON HARBOR  CLEAR      2  -4  76 S3        30.66S
BIG RAPIDS     CLEAR      1  -1  88 CALM      30.56S
COLDWATER      CLEAR      1  -5  73 CALM      30.63F
FREMONT        FAIR       3  -1  82 CALM      30.59S
HOLLAND        CLEAR      6  -2  69 S6        30.63F WCI  -4
GRAND RAPIDS   CLEAR      8  -1  66 SW9       30.62S WCI  -5
IONIA          FAIR       9   1  70 SW7       30.61S WCI  -3
KALAMAZOO      CLEAR      5  -5  63 SW6       30.63F WCI  -6
LUDINGTON      PTCLDY    18   6  60 W8G16     30.59R WCI   8
MARSHALL       CLEAR     -1  -5  82 CALM      30.63S
MOUNT PLEASANT CLEAR      8   1  70 SW5       30.59S WCI   0
MUSKEGON       CLEAR     16   5  62 W9        30.62S WCI   4
SOUTH HAVEN    PTCLDY     9   1  68 SW6       30.64F WCI  -1
$$
MIZ016>042-280600-
NORTHERN LOWER MICHIGAN

CITY           SKY/WX    TMP DP  RH WIND       PRES   REMARKS
ALPENA         CLEAR      2  -5  72 S5        30.54S WCI  -8
BEAVER ISLAND  CLEAR     14   5  67 SW10      30.49S WCI   1
BELLAIRE       CLOUDY    13   4  67 SW5       30.55S WCI   5
CADILLAC       MOCLDY     4  -1  81 SW3       30.49S
CHARLEVOIX     CLEAR     10   3  73 S3        30.55S
FRANKFORT      CLEAR     18   6  61 W9        30.55S WCI   6
GAYLORD        CLOUDY     7   1  76 SW12      30.47R WCI  -8
GRAYLING       MOCLDY     8   1  73 SW8       30.51S WCI  -5
HARBOR SPRINGS CLEAR      8   2  75 CALM      30.51S
HOUGHTON LAKE  PTCLDY     5  -3  69 SW6       30.53S WCI  -6
MANISTEE       MOCLDY     5  -2  72 CALM      30.57S
OSCODA         CLEAR      1  -6  71 SW7       30.57S WCI -11
PELLSTON       CLEAR     11   3  70 CALM      30.51S
ROGERS CITY    CLEAR      7   2  80 SW6       30.53S WCI  -3
TRAVERSE CITY  PTCLDY    10   2  69 S3        30.54S
$$
MIZ007>008-015-280600-
EASTERN UPPER MICHIGAN

CITY           SKY/WX    TMP DP  RH WIND       PRES   REMARKS
KINROSS        CLEAR      3   1  92 SW5       30.46S WCI  -6
MACKINAC ISLAN CLEAR      7   2  80 SW8       30.48R WCI  -5
NEWBERRY       CLEAR      2   0  91 SW8       30.44S WCI -11
S. S. MARIE    CLEAR      0  -6  76 E5        30.46F WCI -10
MUNISING         N/A      8  -1  66 SW10      30.45R WCI  -6
$$
MIZ004>006-011>014-085-280600-
CENTRAL UPPER MICHIGAN

CITY           SKY/WX    TMP DP  RH WIND       PRES   REMARKS
MANISTIQUE     CLEAR     12   0  60 SW6       30.47S WCI   2
ESCANABA       CLEAR      9  -4  56 W9        30.50S WCI  -5
MENOMINEE      CLEAR      9  -6  52 SW6       30.52S WCI  -1
SAWYER-GWINN   CLEAR      7  -5  57 SW6       30.41R WCI  -3
$$
MIZ001>003-009>011-084-280600-
WESTERN UPPER MICHIGAN

CITY           SKY/WX    TMP DP  RH WIND       PRES   REMARKS
IRON MOUNTAIN  CLEAR      7  -6  55 CALM      30.43S
HOUGHTON       PTCLDY    11  -5  48 W20       30.37S WCI  -7
COPPER HARBOR    N/A     17  -4  39 W9        30.38S WCI   6
IRONWOOD       CLEAR      7  -6  56 SW10      30.40S WCI  -8
$$

ABBREVIATIONS USED IN REMARKS
   TC - TEMPERATURE IN CELSIUS
  WCI - WIND CHILL INDEX
   HX - HEAT INDEX
  VSB - VISIBILITY




USA.gov is the U.S. government's official web portal to all federal, state and local government web resources and services.